Time,TemperatureF,DewpointF,PressureIn,WindDirection,WindDirectionDegrees,WindSpeedMPH,WindSpeedGustMPH,Humidity,HourlyPrecipIn,Conditions,Clouds,dailyrainin,SoftwareType,DateUTC
2013-04-23 00:03:00,47.0,38.0,30.21,East,90,2.0,5.0,72,0.00,,,0.00,,2013-04-23 04:03:00,
2013-04-23 00:12:00,47.0,38.0,30.21,East,90,2.0,5.0,72,0.00,,,0.00,,2013-04-23 04:12:00,
2013-04-23 00:23:00,47.0,39.0,30.19,East,90,1.0,5.0,74,0.00,,,0.00,,2013-04-23 04:23:00,
2013-04-23 00:33:00,47.0,40.0,30.20,ESE,112,2.0,3.0,76,0.00,,,0.00,,2013-04-23 04:33:00,
2013-04-23 00:43:00,47.0,40.0,30.20,ESE,112,2.0,3.0,76,0.00,,,0.00,,2013-04-23 04:43:00,
2013-04-23 00:53:00,46.0,39.0,30.19,ENE,67,2.0,3.0,77,0.00,,,0.00,,2013-04-23 04:53:00,
2013-04-23 01:02:00,46.0,40.0,30.19,ENE,67,1.0,4.0,78,0.00,,,0.00,,2013-04-23 05:02:00,
2013-04-23 01:12:00,46.0,40.0,30.19,ENE,67,1.0,4.0,78,0.00,,,0.00,,2013-04-23 05:12:00,
2013-04-23 01:22:00,45.0,39.0,30.19,East,90,1.0,4.0,79,0.00,,,0.00,,2013-04-23 05:22:00,
2013-04-23 01:32:00,44.0,39.0,30.20,East,90,0.0,2.0,81,0.00,,,0.00,,2013-04-23 05:32:00,
2013-04-23 01:42:00,44.0,39.0,30.20,East,90,0.0,2.0,81,0.00,,,0.00,,2013-04-23 05:42:00,
2013-04-23 01:52:00,44.0,39.0,30.20,ENE,67,0.0,0.0,84,0.00,,,0.00,,2013-04-23 05:52:00,
2013-04-23 02:02:00,43.0,39.0,30.21,NE,45,0.0,0.0,85,0.00,,,0.00,,2013-04-23 06:02:00,
2013-04-23 02:12:00,43.0,39.0,30.21,NE,45,0.0,0.0,85,0.00,,,0.00,,2013-04-23 06:12:00,
2013-04-23 02:21:00,43.0,39.0,30.19,East,90,0.0,0.0,87,0.00,,,0.00,,2013-04-23 06:21:00,
2013-04-23 02:33:00,42.0,39.0,30.19,ENE,67,0.0,0.0,88,0.00,,,0.00,,2013-04-23 06:33:00,
2013-04-23 02:42:00,42.0,39.0,30.19,ENE,67,0.0,0.0,88,0.00,,,0.00,,2013-04-23 06:42:00,
2013-04-23 02:52:00,42.0,40.0,30.18,ENE,67,0.0,0.0,91,0.00,,,0.00,,2013-04-23 06:52:00,
2013-04-23 03:02:00,41.0,39.0,30.16,ENE,67,0.0,0.0,92,0.00,,,0.00,,2013-04-23 07:02:00,
2013-04-23 03:11:00,41.0,39.0,30.16,ENE,67,0.0,0.0,92,0.00,,,0.00,,2013-04-23 07:11:00,
2013-04-23 03:21:00,41.0,39.0,30.16,ENE,67,0.0,0.0,93,0.00,,,0.00,,2013-04-23 07:21:00,
2013-04-23 03:32:00,40.0,38.0,30.19,ENE,67,0.0,0.0,93,0.00,,,0.00,,2013-04-23 07:32:00,
2013-04-23 03:42:00,40.0,38.0,30.19,ENE,67,0.0,0.0,93,0.00,,,0.00,,2013-04-23 07:42:00,
2013-04-23 03:52:00,40.0,39.0,30.16,ENE,67,0.0,0.0,96,0.00,,,0.00,,2013-04-23 07:52:00,
2013-04-23 04:02:00,40.0,39.0,30.19,ENE,67,0.0,0.0,96,0.00,,,0.00,,2013-04-23 08:02:00,
2013-04-23 04:11:00,40.0,39.0,30.19,ENE,67,0.0,0.0,96,0.00,,,0.00,,2013-04-23 08:11:00,
2013-04-23 04:21:00,40.0,39.0,30.16,East,90,0.0,0.0,97,0.00,,,0.00,,2013-04-23 08:21:00,
2013-04-23 04:32:00,40.0,39.0,30.18,ENE,67,0.0,0.0,98,0.00,,,0.00,,2013-04-23 08:32:00,
2013-04-23 04:42:00,40.0,39.0,30.18,ENE,67,0.0,0.0,98,0.00,,,0.00,,2013-04-23 08:42:00,
2013-04-23 04:52:00,40.0,40.0,30.15,East,90,0.0,0.0,99,0.00,,,0.00,,2013-04-23 08:52:00,
2013-04-23 05:02:00,40.0,40.0,30.16,East,90,0.0,0.0,99,0.00,,,0.00,,2013-04-23 09:02:00,
2013-04-23 05:11:00,40.0,40.0,30.16,East,90,0.0,0.0,99,0.00,,,0.00,,2013-04-23 09:11:00,
2013-04-23 05:21:00,40.0,40.0,30.13,East,90,0.0,0.0,99,0.00,,,0.00,,2013-04-23 09:21:00,
2013-04-23 05:33:00,40.0,40.0,30.12,East,90,0.0,0.0,99,0.00,,,0.00,,2013-04-23 09:33:00,
2013-04-23 05:43:00,40.0,40.0,30.12,East,90,0.0,0.0,99,0.00,,,0.00,,2013-04-23 09:43:00,
2013-04-23 05:53:00,40.0,40.0,30.13,ENE,67,0.0,0.0,100,0.00,,,0.00,,2013-04-23 09:53:00,
2013-04-23 06:03:00,40.0,40.0,30.12,East,90,0.0,0.0,100,0.00,,,0.00,,2013-04-23 10:03:00,
2013-04-23 06:13:00,40.0,40.0,30.12,East,90,0.0,0.0,100,0.00,,,0.00,,2013-04-23 10:13:00,
2013-04-23 06:23:00,41.0,41.0,30.11,ESE,112,0.0,1.0,100,0.00,,,0.00,,2013-04-23 10:23:00,
2013-04-23 06:33:00,40.0,40.0,30.11,East,90,0.0,0.0,100,0.00,,,0.00,,2013-04-23 10:33:00,
2013-04-23 06:42:00,40.0,40.0,30.11,East,90,0.0,0.0,100,0.00,,,0.00,,2013-04-23 10:42:00,
2013-04-23 06:52:00,40.0,40.0,30.12,East,90,0.0,0.0,100,0.00,,,0.00,,2013-04-23 10:52:00,
2013-04-23 07:03:00,40.0,40.0,30.12,East,90,0.0,0.0,100,0.00,,,0.00,,2013-04-23 11:03:00,
2013-04-23 07:12:00,40.0,40.0,30.14,East,90,0.0,0.0,100,0.00,,,0.00,,2013-04-23 11:12:00,
2013-04-23 07:21:00,40.0,40.0,30.14,East,90,0.0,0.0,100,0.00,,,0.00,,2013-04-23 11:21:00,
2013-04-23 07:32:00,40.0,40.0,30.12,East,90,0.0,0.0,100,0.00,,,0.00,,2013-04-23 11:32:00,
2013-04-23 07:42:00,41.0,41.0,30.11,East,90,0.0,0.0,100,0.00,,,0.00,,2013-04-23 11:42:00,
2013-04-23 07:53:00,41.0,41.0,30.11,East,90,0.0,0.0,100,0.00,,,0.00,,2013-04-23 11:53:00,
2013-04-23 08:02:00,42.0,42.0,30.11,East,90,0.0,0.0,100,0.00,,,0.00,,2013-04-23 12:02:00,
2013-04-23 08:12:00,42.0,42.0,30.11,East,90,0.0,0.0,100,0.00,,,0.00,,2013-04-23 12:12:00,
2013-04-23 08:22:00,42.0,42.0,30.10,East,90,0.0,0.0,100,0.00,,,0.00,,2013-04-23 12:22:00,
2013-04-23 08:32:00,45.0,45.0,30.11,East,90,0.0,0.0,100,0.00,,,0.00,,2013-04-23 12:32:00,
2013-04-23 08:42:00,45.0,45.0,30.11,East,90,0.0,0.0,100,0.00,,,0.00,,2013-04-23 12:42:00,
2013-04-23 08:52:00,49.0,48.0,30.07,SSE,157,1.0,0.0,95,0.00,,,0.00,,2013-04-23 12:52:00,
2013-04-23 09:01:00,51.0,46.0,30.07,South,180,1.0,5.0,82,0.00,,,0.00,,2013-04-23 13:01:00,
2013-04-23 09:11:00,51.0,46.0,30.07,South,180,1.0,5.0,82,0.00,,,0.00,,2013-04-23 13:11:00,
2013-04-23 09:22:00,52.0,46.0,30.09,SSW,202,1.0,5.0,80,0.00,,,0.00,,2013-04-23 13:22:00,
2013-04-23 09:32:00,53.0,46.0,30.08,SE,135,1.0,4.0,77,0.00,,,0.00,,2013-04-23 13:32:00,
2013-04-23 09:42:00,53.0,46.0,30.08,SE,135,1.0,4.0,77,0.00,,,0.00,,2013-04-23 13:42:00,
2013-04-23 09:52:00,54.0,46.0,30.06,SE,135,1.0,5.0,74,0.00,,,0.00,,2013-04-23 13:52:00,
2013-04-23 10:02:00,55.0,47.0,30.06,SE,135,1.0,3.0,73,0.00,,,0.00,,2013-04-23 14:02:00,
2013-04-23 10:11:00,55.0,47.0,30.06,SE,135,1.0,3.0,73,0.00,,,0.00,,2013-04-23 14:11:00,
2013-04-23 10:22:00,56.0,47.0,30.03,SSE,157,1.0,0.0,71,0.00,,,0.00,,2013-04-23 14:22:00,
2013-04-23 10:32:00,58.0,47.0,30.03,South,180,1.0,5.0,68,0.00,,,0.00,,2013-04-23 14:32:00,
2013-04-23 10:42:00,58.0,47.0,30.03,South,180,1.0,5.0,68,0.00,,,0.00,,2013-04-23 14:42:00,
2013-04-23 10:52:00,59.0,47.0,30.02,SSW,202,1.0,4.0,65,0.00,,,0.00,,2013-04-23 14:52:00,
2013-04-23 11:01:00,59.0,47.0,30.02,SSW,202,1.0,4.0,65,0.00,,,0.00,,2013-04-23 15:01:00,
2013-04-23 11:12:00,60.0,48.0,30.02,SW,225,0.0,4.0,65,0.00,,,0.00,,2013-04-23 15:12:00,
2013-04-23 11:21:00,62.0,48.0,30.01,ESE,112,1.0,0.0,60,0.00,,,0.00,,2013-04-23 15:21:00,
2013-04-23 11:32:00,64.0,46.0,30.01,SSW,202,3.0,7.0,52,0.00,,,0.00,,2013-04-23 15:32:00,
2013-04-23 11:42:00,64.0,46.0,30.01,SSW,202,3.0,7.0,52,0.00,,,0.00,,2013-04-23 15:42:00,
2013-04-23 11:53:00,64.0,45.0,30.00,SSE,157,4.0,10.0,50,0.00,,,0.00,,2013-04-23 15:53:00,
2013-04-23 12:03:00,65.0,46.0,29.98,SSW,202,3.0,5.0,50,0.00,,,0.00,,2013-04-23 16:03:00,
2013-04-23 12:12:00,65.0,46.0,29.98,SSW,202,3.0,5.0,50,0.00,,,0.00,,2013-04-23 16:12:00,
2013-04-23 12:23:00,66.0,46.0,29.97,SW,225,3.0,8.0,49,0.00,,,0.00,,2013-04-23 16:23:00,
2013-04-23 12:34:00,68.0,48.0,29.98,South,180,3.0,5.0,49,0.00,,,0.00,,2013-04-23 16:34:00,
2013-04-23 12:43:00,68.0,48.0,29.98,South,180,3.0,5.0,49,0.00,,,0.00,,2013-04-23 16:43:00,
2013-04-23 12:53:00,68.0,48.0,29.96,SW,225,7.0,15.0,48,0.00,,,0.00,,2013-04-23 16:53:00,
2013-04-23 13:02:00,69.0,48.0,29.97,SSW,202,3.0,7.0,47,0.00,,,0.00,,2013-04-23 17:02:00,
2013-04-23 13:12:00,68.0,48.0,29.95,SW,225,5.0,10.0,48,0.00,,,0.00,,2013-04-23 17:12:00,
2013-04-23 13:22:00,68.0,48.0,29.95,SW,225,5.0,10.0,48,0.00,,,0.00,,2013-04-23 17:22:00,
2013-04-23 13:32:00,68.0,48.0,29.94,SE,135,3.0,7.0,49,0.00,,,0.00,,2013-04-23 17:32:00,
2013-04-23 13:42:00,68.0,48.0,29.94,SE,135,3.0,7.0,49,0.00,,,0.00,,2013-04-23 17:42:00,
2013-04-23 13:53:00,69.0,48.0,29.93,SW,225,5.0,9.0,48,0.00,,,0.00,,2013-04-23 17:53:00,
2013-04-23 14:02:00,69.0,50.0,29.92,SE,135,4.0,8.0,50,0.00,,,0.00,,2013-04-23 18:02:00,
2013-04-23 14:12:00,69.0,50.0,29.92,SE,135,4.0,8.0,50,0.00,,,0.00,,2013-04-23 18:12:00,
2013-04-23 14:22:00,69.0,49.0,29.93,SW,225,4.0,10.0,49,0.00,,,0.00,,2013-04-23 18:22:00,
2013-04-23 14:32:00,69.0,50.0,29.91,SW,225,3.0,9.0,50,0.00,,,0.00,,2013-04-23 18:32:00,
2013-04-23 14:42:00,69.0,50.0,29.91,SW,225,3.0,9.0,50,0.00,,,0.00,,2013-04-23 18:42:00,
2013-04-23 14:52:00,69.0,50.0,29.91,SSW,202,5.0,10.0,50,0.00,,,0.00,,2013-04-23 18:52:00,
2013-04-23 15:02:00,68.0,49.0,29.89,WSW,247,7.0,10.0,51,0.00,,,0.00,,2013-04-23 19:02:00,
2013-04-23 15:11:00,68.0,49.0,29.89,WSW,247,7.0,10.0,51,0.00,,,0.00,,2013-04-23 19:11:00,
2013-04-23 15:22:00,68.0,50.0,29.91,SW,225,5.0,10.0,53,0.00,,,0.00,,2013-04-23 19:22:00,
2013-04-23 15:32:00,69.0,51.0,29.89,WSW,247,3.0,8.0,53,0.00,,,0.00,,2013-04-23 19:32:00,
2013-04-23 15:42:00,69.0,51.0,29.89,WSW,247,3.0,8.0,53,0.00,,,0.00,,2013-04-23 19:42:00,
2013-04-23 15:52:00,68.0,50.0,29.89,SSW,202,5.0,9.0,53,0.00,,,0.00,,2013-04-23 19:52:00,
2013-04-23 16:02:00,68.0,51.0,29.89,SSW,202,6.0,11.0,54,0.00,,,0.00,,2013-04-23 20:02:00,
2013-04-23 16:11:00,68.0,51.0,29.89,SSW,202,6.0,11.0,54,0.00,,,0.00,,2013-04-23 20:11:00,
2013-04-23 16:22:00,67.0,50.0,29.89,SW,225,5.0,11.0,54,0.00,,,0.00,,2013-04-23 20:22:00,
2013-04-23 16:32:00,66.0,50.0,29.88,West,270,8.0,14.0,57,0.00,,,0.00,,2013-04-23 20:32:00,
2013-04-23 16:42:00,66.0,50.0,29.88,West,270,8.0,14.0,57,0.00,,,0.00,,2013-04-23 20:42:00,
2013-04-23 16:52:00,66.0,52.0,29.89,SW,225,6.0,10.0,61,0.00,,,0.00,,2013-04-23 20:52:00,
2013-04-23 17:02:00,58.0,58.0,29.93,WNW,292,11.0,18.0,100,0.00,,,0.02,,2013-04-23 21:02:00,
2013-04-23 17:12:00,58.0,58.0,29.93,WNW,292,11.0,18.0,100,0.00,,,0.02,,2013-04-23 21:12:00,
2013-04-23 17:22:00,57.0,57.0,29.95,WNW,292,5.0,11.0,100,0.00,,,0.03,,2013-04-23 21:22:00,
2013-04-23 17:33:00,57.0,57.0,29.96,SW,225,6.0,7.0,100,0.00,,,0.06,,2013-04-23 21:33:00,
2013-04-23 17:43:00,57.0,57.0,29.96,SW,225,6.0,7.0,100,0.00,,,0.06,,2013-04-23 21:43:00,
2013-04-23 17:52:00,56.0,56.0,29.95,SW,225,4.0,7.0,100,0.00,,,0.08,,2013-04-23 21:52:00,
2013-04-23 18:03:00,56.0,56.0,29.94,West,270,3.0,7.0,100,0.00,,,0.09,,2013-04-23 22:03:00,
2013-04-23 18:12:00,56.0,56.0,29.94,West,270,3.0,7.0,100,0.00,,,0.09,,2013-04-23 22:12:00,
2013-04-23 18:22:00,56.0,56.0,29.93,WSW,247,6.0,8.0,100,0.00,,,0.10,,2013-04-23 22:22:00,
2013-04-23 18:33:00,56.0,56.0,29.94,SSW,202,3.0,4.0,100,0.00,,,0.10,,2013-04-23 22:33:00,
2013-04-23 18:42:00,56.0,56.0,29.94,SSW,202,3.0,4.0,100,0.00,,,0.10,,2013-04-23 22:42:00,
2013-04-23 18:52:00,56.0,56.0,29.92,SW,225,3.0,10.0,100,0.00,,,0.11,,2013-04-23 22:52:00,
2013-04-23 19:03:00,56.0,56.0,29.91,WSW,247,4.0,6.0,100,0.00,,,0.11,,2013-04-23 23:03:00,
2013-04-23 19:12:00,56.0,56.0,29.91,WSW,247,4.0,6.0,100,0.00,,,0.11,,2013-04-23 23:12:00,
2013-04-23 19:22:00,56.0,56.0,29.91,SW,225,2.0,4.0,100,0.00,,,0.11,,2013-04-23 23:22:00,
2013-04-23 19:32:00,56.0,56.0,29.91,SW,225,1.0,3.0,100,0.00,,,0.11,,2013-04-23 23:32:00,
2013-04-23 19:42:00,56.0,56.0,29.91,SSW,202,0.0,0.0,100,0.00,,,0.12,,2013-04-23 23:42:00,
2013-04-23 19:52:00,56.0,56.0,29.91,SSW,202,0.0,0.0,100,0.00,,,0.12,,2013-04-23 23:52:00,
2013-04-23 20:01:00,55.0,55.0,29.93,SW,225,0.0,0.0,100,0.00,,,0.14,,2013-04-24 00:01:00,
2013-04-23 20:11:00,55.0,55.0,29.93,SW,225,0.0,0.0,100,0.00,,,0.14,,2013-04-24 00:11:00,
2013-04-23 20:22:00,55.0,55.0,29.91,SW,225,0.0,0.0,100,0.00,,,0.17,,2013-04-24 00:22:00,
2013-04-23 20:32:00,55.0,55.0,29.90,SW,225,0.0,0.0,100,0.00,,,0.22,,2013-04-24 00:32:00,
2013-04-23 20:42:00,55.0,55.0,29.90,SW,225,0.0,0.0,100,0.00,,,0.22,,2013-04-24 00:42:00,
2013-04-23 20:52:00,55.0,55.0,29.90,WSW,247,1.0,4.0,100,0.00,,,0.24,,2013-04-24 00:52:00,
2013-04-23 21:02:00,55.0,55.0,29.89,SSW,202,0.0,0.0,100,0.00,,,0.32,,2013-04-24 01:02:00,
2013-04-23 21:11:00,55.0,55.0,29.89,SSW,202,0.0,0.0,100,0.00,,,0.32,,2013-04-24 01:11:00,
2013-04-23 21:21:00,54.0,54.0,29.89,East,90,0.0,0.0,100,0.00,,,0.35,,2013-04-24 01:21:00,
2013-04-23 21:32:00,54.0,54.0,29.89,East,90,0.0,0.0,100,0.00,,,0.36,,2013-04-24 01:32:00,
2013-04-23 21:42:00,54.0,54.0,29.89,East,90,0.0,0.0,100,0.00,,,0.36,,2013-04-24 01:42:00,
2013-04-23 21:52:00,54.0,54.0,29.89,East,90,0.0,0.0,100,0.00,,,0.40,,2013-04-24 01:52:00,
2013-04-23 22:02:00,54.0,54.0,29.87,East,90,2.0,6.0,100,0.00,,,0.45,,2013-04-24 02:02:00,
2013-04-23 22:39:00,54.0,54.0,29.84,SE,135,1.0,4.0,100,0.00,,,0.48,,2013-04-24 02:39:00,
2013-04-23 22:48:00,54.0,54.0,29.84,SE,135,1.0,4.0,100,0.00,,,0.48,,2013-04-24 02:48:00,
2013-04-23 23:10:00,54.0,54.0,29.83,ESE,112,3.0,7.0,100,0.00,,,0.50,,2013-04-24 03:10:00,
2013-04-23 23:18:00,54.0,54.0,29.83,ESE,112,3.0,7.0,100,0.00,,,0.50,,2013-04-24 03:18:00,
2013-04-23 23:30:00,55.0,55.0,29.84,SW,225,1.0,0.0,100,0.00,,,0.51,,2013-04-24 03:30:00,
2013-04-23 23:41:00,55.0,55.0,29.84,West,270,3.0,5.0,100,0.00,,,0.55,,2013-04-24 03:41:00,
2013-04-23 23:51:00,55.0,55.0,29.84,West,270,3.0,5.0,100,0.00,,,0.55,,2013-04-24 03:51:00,